Regional Weather Roundup
Issued by NWS

Home | Current Version | Previous Version | Graphics & Text | Print | Product List | Glossary On
Versions: 1 2 3 4 5 6 7 8 9 10 11 12 13 14 15 16 17 18 19 20 21 22 23 24 25 26 27 28 29 30 31 32 33 34 35 36 37 38 39 40 41 42 43 44 45 46 47 48 49 50
000
ASUS43 KBIS 271731
RWRND
NORTH DAKOTA REGIONAL WEATHER ROUNDUP
NATIONAL WEATHER SERVICE EASTERN NORTH DAKOTA/GRAND FORKS ND
1200 PM CDT TUE JUN 27 2017

  NOTE: "FAIR" INDICATES FEW OR NO CLOUDS BELOW 12,000 FEET WITH NO
  SIGNIFICANT WEATHER AND/OR OBSTRUCTIONS TO VISIBILITY.

NDZ001>003-009>011-017-271800-
...NORTHWEST NORTH DAKOTA...

CITY           SKY/WX    TMP DP  RH WIND       PRES   REMARKS
WILLISTON      FAIR      82  46  28 S13G20    29.57F
MINOT          FAIR      72  49  44 S16G24    29.61F
MINOT AFB      FAIR      74  49  40 S18G25    29.60F
$$

NDZ018>021-031>035-040>046-271800-
...SOUTHWEST NORTH DAKOTA...

CITY           SKY/WX    TMP DP  RH WIND       PRES   REMARKS
BISMARCK       FAIR      80  54  40 S25       29.69F
DICKINSON      FAIR      79  48  33 S14       29.61F
GARRISON         N/A     72  50  45 S20       29.65F
HETTINGER      FAIR      81  53  37 SE14G21   29.65F
$$

NDZ004>008-012>016-024-026-027-054-271800-
...NORTHEAST NORTH DAKOTA...

CITY           SKY/WX    TMP DP  RH WIND       PRES   REMARKS
GRAND FORKS    PTSUNNY   74  47  38 S18G31    29.79F
GRAND FORKS AF FAIR      73  44  34 S22G30    29.78F
DEVILS LAKE    FAIR      73  47  39 SE21G35   29.70F
$$

NDZ022-023-025-028>030-036>039-047>053-271800-
...SOUTHEAST NORTH DAKOTA...

CITY           SKY/WX    TMP DP  RH WIND       PRES   REMARKS
JAMESTOWN      FAIR      68  47  46 S21G32    29.78F
FARGO          FAIR      75  45  34 S21G32    29.85F
WAHPETON       FAIR      70  37  30 S23       29.89F
$$




USA.gov is the U.S. government's official web portal to all federal, state and local government web resources and services.